Weather History for YMML - February, 2014

Change the Weather History Date:

Tuesday, February 25, 2014

  Actual Average Record
Temperature  
Mean Temperature 75 °F -  
Max Temperature 96 °F 73 °F 98 °F (1998)
Min Temperature 54 °F 53 °F 32 °F (2006)
Cooling Degree Days 10    
Growing Degree Days 25 (Base 50)    
Moisture  
Dew Point 49 °F    
Average Humidity 53    
Maximum Humidity 96    
Minimum Humidity 5    
Precipitation  
Precipitation 0.00 in 0.05 in - ()
Sea Level Pressure  
Sea Level Pressure 29.81 in    
Wind  
Wind Speed 12 mph ()    
Max Wind Speed 26 mph    
Max Gust Speed 36 mph    
Visibility 9.8 miles    
Events      
Averages and records for this station are not official NWS values.
T = Trace of Precipitation, MM = Missing Value Source: Averaged Metar Reports

Daily Weather History Graph

Daily Weather History Graph

Search for Another Location

Airport or City:

Trip Planner

Search our weather history database for the weather conditions in past years. The results will help you decide how hot, cold, wet, or windy it might be!

Date:

Astronomy

Feb. 25, 2014 Rise Set
Actual Time 7:00 AM AEDT 8:06 PM AEDT
Civil Twilight 6:33 AM AEDT 8:33 PM AEDT
Nautical Twilight 6:01 AM AEDT 9:05 PM AEDT
Astronomical Twilight 5:28 AM AEDT 9:38 PM AEDT
Moon 2:06 AM AEDT (2/25) 4:39 PM AEDT (2/25)
Length of Visible Light 13h 59m
Length of Day
13h 05m
Waning Crescent, 25% of the Moon is Illuminated
Feb 25
Waning Crescent
Mar 1
New
Mar 9
First Quarter
Mar 17
Full
Mar 24
Last Quarter

Hourly Weather History & Observations

Time (AEDT) Temp. Dew Point Humidity Pressure Visibility Wind Dir Wind Speed Gust Speed Precip Events Conditions
12:00 AM 58 °F 55 °F 87% 29.98 in 19 mi West 6.9 mph - -   Partly Cloudy
12:00 AM 59.0 °F 55.4 °F 88% 29.98 in - West 6.9 mph - N/A   Clear
12:30 AM 57.2 °F 55.4 °F 94% 29.98 in - West 6.9 mph - N/A   Clear
1:00 AM 58 °F 55 °F 87% 29.95 in - WNW 6.9 mph - -  
1:00 AM 59.0 °F 55.4 °F 88% 29.95 in - WNW 6.9 mph - N/A   Clear
1:30 AM 57.2 °F 55.4 °F 94% 29.95 in - NW 6.9 mph - N/A   Clear
2:00 AM 58 °F 55 °F 85% 29.92 in - North 5.8 mph - -  
2:00 AM 57.2 °F 55.4 °F 94% 29.92 in - North 5.8 mph - N/A   Clear
2:30 AM 57.2 °F 55.4 °F 94% 29.89 in - North 8.1 mph - N/A   Clear
3:00 AM 58 °F 55 °F 87% 29.89 in 16 mi North 6.9 mph - -   Haze
3:00 AM 59.0 °F 55.4 °F 88% 29.89 in - North 6.9 mph - N/A   Clear
3:30 AM 57.2 °F 53.6 °F 88% 29.89 in - North 6.9 mph - N/A   Clear
4:00 AM 57 °F 55 °F 91% 29.87 in - North 6.9 mph - -  
4:00 AM 57.2 °F 55.4 °F 94% 29.86 in - North 6.9 mph - N/A   Clear
4:30 AM 55.4 °F 53.6 °F 94% 29.86 in - North 8.1 mph - N/A   Clear
5:00 AM 54 °F 53 °F 96% 29.85 in - West 5.8 mph - -  
5:00 AM 55.4 °F 53.6 °F 94% 29.86 in - West 5.8 mph - N/A   Clear
5:30 AM 55.4 °F 53.6 °F 94% 29.83 in - Calm Calm - N/A   Clear
6:00 AM 61 °F 54 °F 70% 29.83 in 16 mi North 12.7 mph - -   Haze
6:00 AM 60.8 °F 53.6 °F 77% 29.83 in - North 12.7 mph - N/A   Clear
6:30 AM 64.4 °F 51.8 °F 64% 29.83 in - North 16.1 mph - N/A   Clear
7:00 AM 69 °F 49 °F 38% 29.83 in - North 19.6 mph - -  
7:00 AM 69.8 °F 50.0 °F 49% 29.83 in - North 19.6 mph - N/A   Clear
7:30 AM 69.8 °F 48.2 °F 46% 29.83 in - North 18.4 mph - N/A   Clear
8:00 AM 72 °F 48 °F 31% 29.83 in - North 18.4 mph - -  
8:00 AM 73.4 °F 48.2 °F 41% 29.83 in - North 18.4 mph - N/A   Clear
8:30 AM 75.2 °F 46.4 °F 36% 29.83 in - North 21.9 mph - N/A   Clear
9:00 AM 77 °F 46 °F 23% 29.83 in 19 mi North 24.2 mph - -   Partly Cloudy
9:00 AM 77.0 °F 46.4 °F 34% 29.83 in - North 24.2 mph - N/A   Clear
9:30 AM 78.8 °F 46.4 °F 32% 29.83 in - North 26.5 mph - N/A   Clear
10:00 AM 81 °F 46 °F 19% 29.83 in - North 23.0 mph - -  
10:00 AM 80.6 °F 46.4 °F 30% 29.83 in - North 23.0 mph - N/A   Clear
10:18 AM 82.4 °F 46.4 °F 28% 29.83 in - North 23.0 mph 34.5 mph N/A   Clear
10:30 AM 86.0 °F 44.6 °F 23% 29.80 in - North 21.9 mph - N/A   Clear
11:00 AM 88 °F 46 °F 14% 29.81 in - NNW 19.6 mph - -  
11:00 AM 87.8 °F 46.4 °F 24% 29.80 in - NNW 19.6 mph 33.4 mph N/A   Clear
11:30 AM 89.6 °F 41.0 °F 18% 29.80 in - NNW 20.7 mph - N/A   Clear
11:37 AM 91.4 °F 37.4 °F 15% 29.80 in - NW 18.4 mph 29.9 mph N/A   Clear
12:00 PM 91 °F 38 °F 8% 29.78 in 19 mi NNW 19.6 mph - -   Scattered Clouds
12:00 PM 91.4 °F 39.2 °F 16% 29.77 in - NNW 19.6 mph - N/A   Clear
12:21 PM 91.4 °F 42.8 °F 18% 29.77 in - NNW 17.3 mph 29.9 mph N/A   Clear
12:30 PM 91.4 °F 44.6 °F 20% 29.77 in - North 20.7 mph - N/A   Clear
1:00 PM 91 °F 45 °F 12% 29.75 in - North 21.9 mph - -  
1:00 PM 91.4 °F 44.6 °F 20% 29.74 in - North 21.9 mph - N/A   Clear
1:30 PM 91.4 °F 39.2 °F 16% 29.74 in - NNW 15.0 mph - N/A   Clear
1:40 PM 91.4 °F 33.8 °F 13% 29.74 in - WNW 19.6 mph 33.4 mph N/A   Clear
2:00 PM 92 °F 33 °F 6% 29.72 in - WNW 24.2 mph - -  
2:00 PM 91.4 °F 32.0 °F 12% 29.71 in - WNW 24.2 mph 35.7 mph N/A   Clear
2:30 PM 93.2 °F 33.8 °F 12% 29.71 in - NW 16.1 mph - N/A   Clear
2:38 PM 93.2 °F 33.8 °F 12% 29.71 in - NNW 17.3 mph 28.8 mph N/A   Clear
3:00 PM 92 °F 33 °F 6% 29.70 in 19 mi WNW 24.2 mph - -   Mostly Cloudy
3:00 PM 93.2 °F 33.8 °F 12% 29.68 in - WNW 24.2 mph - N/A   Clear
3:10 PM 96.8 °F 32.0 °F 10% 29.68 in - WNW 21.9 mph 33.4 mph N/A   Clear
3:30 PM 93.2 °F 32.0 °F 11% 29.68 in - WNW 21.9 mph - N/A   Clear
4:00 PM 96 °F 31 °F 5% 29.67 in - WNW 19.6 mph - -  
4:00 PM 95.0 °F 32.0 °F 11% 29.68 in - WNW 19.6 mph - N/A   Clear
4:30 PM 86.0 °F 51.8 °F 31% 29.71 in - NNE 11.5 mph - N/A   Clear
5:00 PM 78 °F 58 °F 40% 29.69 in - SSE 13.8 mph - -  
5:00 PM 77.0 °F 57.2 °F 50% 29.68 in 6.2 mi SSE 13.8 mph - N/A   Mostly Cloudy
5:30 PM 71.6 °F 60.8 °F 69% 29.71 in 6.2 mi SSE 18.4 mph - N/A   Mostly Cloudy
6:00 PM 69 °F 61 °F 69% 29.73 in 9 mi South 19.6 mph - -   Smoke
6:00 PM 69.8 °F 60.8 °F 73% 29.74 in 6.2 mi South 19.6 mph - N/A   Mostly Cloudy
6:30 PM 66.2 °F 59.0 °F 78% 29.74 in 6.2 mi South 18.4 mph - N/A   Mostly Cloudy
7:00 PM 67 °F 59 °F 67% 29.77 in - South 18.4 mph - -  
7:00 PM 66.2 °F 59.0 °F 78% 29.77 in 6.2 mi South 18.4 mph - N/A   Mostly Cloudy
7:30 PM 66.2 °F 59.0 °F 78% 29.77 in 6.2 mi South 17.3 mph - N/A   Mostly Cloudy
8:00 PM 65 °F 58 °F 73% 29.81 in - South 16.1 mph - -  
8:00 PM 64.4 °F 59.0 °F 83% 29.80 in 6.2 mi South 16.1 mph - N/A   Mostly Cloudy
8:30 PM 64.4 °F 59.0 °F 83% 29.83 in 6.2 mi South 15.0 mph - N/A   Mostly Cloudy
9:00 PM 65 °F 58 °F 71% 29.83 in 12 mi South 15.0 mph - -   Smoke
9:00 PM 64.4 °F 57.2 °F 77% 29.83 in 6.2 mi South 15.0 mph - N/A   Mostly Cloudy
9:30 PM 64.4 °F 57.2 °F 77% 29.86 in 6.2 mi SSE 12.7 mph - N/A   Mostly Cloudy
10:00 PM 65 °F 56 °F 65% 29.86 in - SSE 15.0 mph - -  
10:00 PM 64.4 °F 55.4 °F 73% 29.86 in 6.2 mi SSE 15.0 mph - N/A   Overcast
10:30 PM 64.4 °F 55.4 °F 73% 29.86 in 6.2 mi South 10.4 mph - N/A   Mostly Cloudy
11:00 PM 64 °F 56 °F 70% 29.86 in - South 9.2 mph - -  
11:00 PM 64.4 °F 57.2 °F 77% 29.86 in 6.2 mi South 9.2 mph - N/A   Mostly Cloudy
11:30 PM 64.4 °F 57.2 °F 77% 29.86 in 6.2 mi South 8.1 mph - N/A   Mostly Cloudy